Simultaneous Nadir Overpasses (SNOs) Predictions

Prediction of SNOs between TERRA and METOP-C Satellite Orbit:

Table of predicted SNOs for the next 14.0 days since TLE Epoch: 8/9/2025
Index Date (TERRA) Time (TERRA) Lat,Lon (TERRA) SZA (TERRA ) Date (METOP-C) Time (METOP-C) Lat,Lon (METOP-C) SZA (METOP-C ) Distance(km) Time Diff (sec)
1 08/11/2025 11:33:42 -75.87, -67.76 101.18 08/11/2025 11:33:21 -75.87, -67.79 101.21 0.98 21
2 08/11/2025 12:22:43 74.87, 102.58 79.78 08/11/2025 12:23:41 74.87, 102.59 79.85 0.45 58
3 08/14/2025 00:23:30 -76.46, 97.99 100.99 08/14/2025 00:22:32 -76.47, 97.89 101.07 2.87 58
4 08/14/2025 01:12:32 75.54, -91.62 79.91 08/14/2025 01:12:53 75.54, -91.63 79.93 0.38 21
5 08/16/2025 14:02:17 76.06, 74.43 80.20 08/16/2025 14:02:01 76.06, 74.43 80.18 0.24 16
6 08/16/2025 14:51:15 -75.06,-115.13 98.84 08/16/2025 14:52:20 -75.06,-115.08 98.77 1.52 65
7 08/19/2025 02:52:00 76.45,-119.21 80.64 08/19/2025 02:51:07 76.44,-119.15 80.60 1.90 53
8 08/19/2025 03:41:01 -75.60, 50.99 98.54 08/19/2025 03:41:29 -75.59, 51.08 98.49 2.76 28
9 08/21/2025 16:30:49 -76.25,-143.35 98.32 08/21/2025 16:30:41 -76.25,-143.38 98.34 1.02 8



Historial Predications of SNOs between TERRA and METOP-C
